Home   Weather   Longford   Past weeks
Flag for Ireland

Past Weather in Longford, Ireland — Yesterday and Last 2 Weeks

Now
49 °F

Cool.


Feels Like: 48 °F
Forecast: 43 / 33 °F
Wind: 3 mph from Southwest

Location: Mullingar

Current Time: Oct 24, 2019 at 1:36:02 am

Latest Report: Oct 24, 2019 at 12:00 am


Visibility: 12 mi

Pressure: 29.57 "Hg

Humidity: 97%

Dew Point: 48 °F

Location of LongfordLocation

Past Weather in Longford — Graph

°F

Longford Temperature Yesterday

Maximum temperature yesterday: 55 °F (at 1:00 pm)
Minimum temperature yesterday: 48 °F (at 2:00 am)
Average temperature yesterday: 51 °F

High & Low Weather Summary for the Past Weeks

 TemperatureHumidityPressure
High58 °F (Oct 10, 3:00 pm)100% (Oct 14, 4:00 am)30.29 "Hg (Oct 14, 4:00 am)
Low36 °F (Oct 21, 10:00 pm)60% (Oct 21, 4:00 pm)29.23 "Hg (Oct 18, 5:00 am)
Average48 °F88%29.66 "Hg
* Reported Oct 9 12:00 am — Oct 24 12:00 am, Longford. Weather by CustomWeather, © 2019

Note: Actual official high and low records may vary slightly from our data, if they occured in-between our weather recording intervals... More about our weather records

Advertising

Longford Weather History for the Previous 24 Hours

Scroll right to see more
 ConditionsComfort  
Time TempWeatherWind HumidityBarometerVisibility
12:00 am
Thu, Oct 24
49 °FCool.3 mph97%29.57 "Hg12 mi
11:00 pm
Wed, Oct 23
49 °FCool.3 mph97%29.57 "Hg13 mi
10:00 pm50 °FCool.3 mph96%29.57 "Hg19 mi
9:00 pm51 °FCool.3 mph97%29.57 "Hg22 mi
8:00 pm52 °FCool.6 mph96%29.57 "Hg4 mi
7:00 pm51 °FRain. Overcast.6 mph95%29.57 "Hg11 mi
6:00 pm51 °FCool.6 mph95%29.59 "Hg6 mi
5:00 pm51 °FCool.6 mph92%29.60 "Hg4 mi
4:00 pm51 °FLight rain. Cloudy.6 mph91%29.63 "Hg7 mi
3:00 pm52 °FCool.6 mph88%29.65 "Hg7 mi
2:00 pm54 °FCool.7 mph77%29.67 "Hg16 mi
1:00 pm55 °FCool.8 mph74%29.68 "Hg22 mi
12:00 pm54 °FCool.7 mph76%29.72 "Hg22 mi
11:00 am54 °FCool.7 mph76%29.75 "Hg25 mi
10:00 am52 °FCool.7 mph76%29.78 "Hg22 mi
9:00 am51 °FCool.7 mph81%29.80 "Hg22 mi
8:00 am51 °FCool.6 mph85%29.81 "Hg28 mi
7:00 am51 °FCool.6 mph84%29.82 "Hg25 mi
6:00 am50 °FCool.5 mph88%29.84 "Hg22 mi
5:00 am50 °FCool.5 mph90%29.86 "Hg19 mi
4:00 am49 °FCool.3 mph93%29.89 "Hg19 mi
3:00 am49 °FCool.3 mph91%29.91 "Hg18 mi
2:00 am48 °FCool.3 mph91%29.95 "Hg19 mi
1:00 am49 °FCool.5 mph89%29.96 "Hg22 mi
Weather by CustomWeather, © 2019

See weather overview